Time,TemperatureF,DewpointF,PressureIn,WindDirection,WindDirectionDegrees,WindSpeedMPH,WindSpeedGustMPH,Humidity,HourlyPrecipIn,Conditions,Clouds,dailyrainin,SoftwareType,DateUTC
2014-04-17 00:03:00,52.0,-99.9,-100.00,SSE,149,4.0,9.0,-999,-99.99,,,-99.99,,2014-04-17 05:03:00,
2014-04-17 00:53:00,49.0,-99.9,-100.00,SSE,154,7.0,10.0,-999,-99.99,,,-99.99,,2014-04-17 05:53:00,
2014-04-17 01:02:00,49.0,-99.9,-100.00,SSE,154,7.0,10.0,-999,-99.99,,,-99.99,,2014-04-17 06:02:00,
2014-04-17 01:42:00,47.0,-99.9,-100.00,SSE,166,6.0,11.0,-999,-99.99,,,-99.99,,2014-04-17 06:42:00,
2014-04-17 01:52:00,47.0,-99.9,-100.00,SSE,166,6.0,11.0,-999,-99.99,,,-99.99,,2014-04-17 06:52:00,
2014-04-17 05:20:00,38.0,-99.9,-100.00,SE,138,5.0,7.0,-999,-99.99,,,-99.99,,2014-04-17 10:20:00,
2014-04-17 05:42:00,37.0,-99.9,-100.00,SE,142,5.0,6.0,-999,-99.99,,,-99.99,,2014-04-17 10:42:00,
2014-04-17 05:53:00,37.0,-99.9,-100.00,SE,142,5.0,6.0,-999,-99.99,,,-99.99,,2014-04-17 10:53:00,
2014-04-17 06:12:00,38.0,-99.9,-100.00,SE,138,5.0,7.0,-999,-99.99,,,-99.99,,2014-04-17 11:12:00,
2014-04-17 06:50:00,40.0,-99.9,-100.00,SE,139,4.0,8.0,-999,-99.99,,,-99.99,,2014-04-17 11:50:00,
2014-04-17 07:22:00,40.0,-99.9,-100.00,SSE,147,6.0,8.0,-999,-99.99,,,-99.99,,2014-04-17 12:22:00,
2014-04-17 07:42:00,40.0,-99.9,-100.00,SE,139,4.0,8.0,-999,-99.99,,,-99.99,,2014-04-17 12:42:00,
2014-04-17 09:42:00,41.0,-99.9,-100.00,SE,140,4.0,11.0,-999,-99.99,,,-99.99,,2014-04-17 14:42:00,
2014-04-17 09:54:00,41.0,-99.9,-100.00,SE,140,4.0,11.0,-999,-99.99,,,-99.99,,2014-04-17 14:54:00,
2014-04-17 13:43:00,45.0,-99.9,-100.00,SSW,197,9.0,10.0,-999,-99.99,,,-99.99,,2014-04-17 18:43:00,
2014-04-17 13:56:00,50.0,-99.9,-100.00,South,177,10.0,10.0,-999,-99.99,,,-99.99,,2014-04-17 18:56:00,
2014-04-17 14:13:00,51.0,-99.9,-100.00,SSE,165,6.0,9.0,-999,-99.99,,,-99.99,,2014-04-17 19:13:00,
2014-04-17 14:22:00,51.0,-99.9,-100.00,SSE,152,5.0,10.0,-999,-99.99,,,-99.99,,2014-04-17 19:22:00,
2014-04-17 14:33:00,51.0,-99.9,-100.00,SSE,152,5.0,10.0,-999,-99.99,,,-99.99,,2014-04-17 19:33:00,
2014-04-17 15:12:00,50.0,-99.9,-100.00,West,274,1.0,9.0,-999,-99.99,,,-99.99,,2014-04-17 20:12:00,
2014-04-17 16:12:00,51.0,-99.9,-100.00,SSE,154,5.0,7.0,-999,-99.99,,,-99.99,,2014-04-17 21:12:00,
2014-04-17 16:22:00,51.0,-99.9,-100.00,SSE,154,5.0,7.0,-999,-99.99,,,-99.99,,2014-04-17 21:22:00,